Time,TemperatureF,DewpointF,PressureIn,WindDirection,WindDirectionDegrees,WindSpeedMPH,WindSpeedGustMPH,Humidity,HourlyPrecipIn,Conditions,Clouds,dailyrainin,SoftwareType,DateUTC
2013-01-05 00:02:00,35.1,21.8,30.00,SE,143,0.0,0.0,58,0.00,,---,0.00,VWS V14.00,2013-01-05 08:02:00,
2013-01-05 00:07:00,35.1,22.2,30.00,SE,143,0.0,0.0,59,0.00,,---,0.00,VWS V14.00,2013-01-05 08:07:00,
2013-01-05 00:13:00,35.1,22.2,30.00,SE,143,0.0,0.0,59,0.00,,---,0.00,VWS V14.00,2013-01-05 08:13:00,
2013-01-05 00:19:00,35.1,22.2,30.00,SE,143,0.0,0.0,59,0.00,,---,0.00,VWS V14.00,2013-01-05 08:19:00,
2013-01-05 00:24:00,34.9,22.0,30.00,SE,143,0.0,0.0,59,0.00,,---,0.00,VWS V14.00,2013-01-05 08:24:00,
2013-01-05 00:29:00,34.7,21.9,30.00,SE,143,0.0,0.0,59,0.00,,---,0.00,VWS V14.00,2013-01-05 08:29:00,
2013-01-05 00:34:00,34.7,22.2,30.00,SE,143,0.0,0.0,60,0.00,,---,0.00,VWS V14.00,2013-01-05 08:34:00,
2013-01-05 00:40:00,34.5,22.1,30.00,SE,143,0.0,0.0,60,0.00,,---,0.00,VWS V14.00,2013-01-05 08:40:00,
2013-01-05 00:45:00,34.5,22.1,30.00,SE,143,0.0,0.0,60,0.00,,---,0.00,VWS V14.00,2013-01-05 08:45:00,
2013-01-05 00:50:00,34.5,22.1,30.00,SE,143,0.0,0.0,60,0.00,,---,0.00,VWS V14.00,2013-01-05 08:50:00,
2013-01-05 00:55:00,34.5,22.5,30.00,SE,143,0.0,0.0,61,0.00,,---,0.00,VWS V14.00,2013-01-05 08:55:00,
2013-01-05 01:01:00,34.7,22.6,29.97,SE,143,0.0,0.0,61,0.00,,---,0.00,VWS V14.00,2013-01-05 09:01:00,
2013-01-05 01:07:00,34.5,22.5,29.97,SE,143,0.0,0.0,61,0.00,,---,0.00,VWS V14.00,2013-01-05 09:07:00,
2013-01-05 01:12:00,34.3,22.3,29.97,SE,143,0.0,0.0,61,0.00,,---,0.00,VWS V14.00,2013-01-05 09:12:00,
2013-01-05 01:17:00,34.2,22.1,29.97,SE,143,0.0,0.0,61,0.00,,---,0.00,VWS V14.00,2013-01-05 09:17:00,
2013-01-05 01:22:00,34.0,22.4,29.97,SE,143,0.0,0.0,62,0.00,,---,0.00,VWS V14.00,2013-01-05 09:22:00,
2013-01-05 01:28:00,34.0,22.4,29.97,SE,143,0.0,0.0,62,0.00,,---,0.00,VWS V14.00,2013-01-05 09:28:00,
2013-01-05 01:33:00,33.8,22.2,30.00,SE,143,0.0,0.0,62,0.00,,---,0.00,VWS V14.00,2013-01-05 09:33:00,
2013-01-05 01:39:00,33.8,22.5,30.00,SE,143,0.0,0.0,63,0.00,,---,0.00,VWS V14.00,2013-01-05 09:39:00,
2013-01-05 01:44:00,34.0,22.7,30.00,SE,143,0.0,0.0,63,0.00,,---,0.00,VWS V14.00,2013-01-05 09:44:00,
2013-01-05 01:50:00,34.0,22.7,30.00,SE,143,0.0,0.0,63,0.00,,---,0.00,VWS V14.00,2013-01-05 09:50:00,
2013-01-05 01:56:00,34.2,22.9,30.00,SE,143,0.0,0.0,63,0.00,,---,0.00,VWS V14.00,2013-01-05 09:56:00,
2013-01-05 02:01:00,34.2,22.9,30.00,SE,143,0.0,0.0,63,0.00,,---,0.00,VWS V14.00,2013-01-05 10:01:00,
2013-01-05 02:07:00,34.2,23.3,30.00,SE,143,0.0,0.0,64,0.00,,---,0.00,VWS V14.00,2013-01-05 10:07:00,
2013-01-05 02:12:00,34.0,23.1,30.00,SE,143,0.0,0.0,64,0.00,,---,0.00,VWS V14.00,2013-01-05 10:12:00,
2013-01-05 02:17:00,34.0,23.1,30.00,SE,143,0.0,0.0,64,0.00,,---,0.00,VWS V14.00,2013-01-05 10:17:00,
2013-01-05 02:23:00,33.8,22.9,30.00,SE,143,0.0,0.0,64,0.00,,---,0.00,VWS V14.00,2013-01-05 10:23:00,
2013-01-05 02:28:00,33.8,22.9,30.00,SE,143,0.0,0.0,64,0.00,,---,0.00,VWS V14.00,2013-01-05 10:28:00,
2013-01-05 02:34:00,33.6,23.1,30.00,SE,143,0.0,0.0,65,0.00,,---,0.00,VWS V14.00,2013-01-05 10:34:00,
2013-01-05 02:39:00,33.4,23.0,30.00,SE,143,0.0,0.0,65,0.00,,---,0.00,VWS V14.00,2013-01-05 10:39:00,
2013-01-05 02:44:00,33.3,23.1,30.00,SE,143,0.0,0.0,66,0.00,,---,0.00,VWS V14.00,2013-01-05 10:44:00,
2013-01-05 02:49:00,33.3,23.1,30.00,SE,143,0.0,0.0,66,0.00,,---,0.00,VWS V14.00,2013-01-05 10:49:00,
2013-01-05 02:55:00,33.3,23.1,30.00,SE,143,0.0,0.0,66,0.00,,---,0.00,VWS V14.00,2013-01-05 10:55:00,
2013-01-05 03:00:00,33.3,23.1,30.00,SE,143,0.0,0.0,66,0.00,,---,0.00,VWS V14.00,2013-01-05 11:00:00,
2013-01-05 03:05:00,33.3,23.1,30.00,SE,143,0.0,0.0,66,0.00,,---,0.00,VWS V14.00,2013-01-05 11:05:00,
2013-01-05 03:11:00,33.3,23.1,30.00,SE,143,0.0,0.0,66,0.00,,---,0.00,VWS V14.00,2013-01-05 11:11:00,
2013-01-05 03:16:00,33.3,23.1,30.00,SE,143,0.0,0.0,66,0.00,,---,0.00,VWS V14.00,2013-01-05 11:16:00,
2013-01-05 03:21:00,33.1,23.0,30.00,SE,143,0.0,0.0,66,0.00,,---,0.00,VWS V14.00,2013-01-05 11:21:00,
2013-01-05 03:26:00,32.9,23.2,30.00,SE,143,0.0,0.0,67,0.00,,---,0.00,VWS V14.00,2013-01-05 11:26:00,
2013-01-05 03:32:00,33.1,23.3,30.00,SE,143,0.0,0.0,67,0.00,,---,0.00,VWS V14.00,2013-01-05 11:32:00,
2013-01-05 03:38:00,33.1,23.3,30.00,SE,143,0.0,0.0,67,0.00,,---,0.00,VWS V14.00,2013-01-05 11:38:00,
2013-01-05 03:43:00,32.9,23.2,30.00,SE,143,0.0,0.0,67,0.00,,---,0.00,VWS V14.00,2013-01-05 11:43:00,
2013-01-05 03:49:00,32.7,23.0,29.97,SE,143,0.0,0.0,67,0.00,,---,0.00,VWS V14.00,2013-01-05 11:49:00,
2013-01-05 03:54:00,32.9,23.5,29.97,SE,143,0.0,0.0,68,0.00,,---,0.00,VWS V14.00,2013-01-05 11:54:00,
2013-01-05 03:59:00,32.9,23.5,29.97,SE,143,0.0,0.0,68,0.00,,---,0.00,VWS V14.00,2013-01-05 11:59:00,
2013-01-05 04:04:00,32.7,23.3,30.00,SE,143,0.0,0.0,68,0.00,,---,0.00,VWS V14.00,2013-01-05 12:04:00,
2013-01-05 04:10:00,32.7,23.3,30.00,SE,143,0.0,0.0,68,0.00,,---,0.00,VWS V14.00,2013-01-05 12:10:00,
2013-01-05 04:16:00,32.5,23.2,30.00,SE,143,0.0,0.0,68,0.00,,---,0.00,VWS V14.00,2013-01-05 12:16:00,
2013-01-05 04:22:00,32.4,23.0,29.97,SE,143,0.0,0.0,68,0.00,,---,0.00,VWS V14.00,2013-01-05 12:22:00,
2013-01-05 04:28:00,32.4,23.0,29.97,SE,143,0.0,0.0,68,0.00,,---,0.00,VWS V14.00,2013-01-05 12:28:00,
2013-01-05 04:34:00,32.4,23.3,30.00,SE,143,0.0,0.0,69,0.00,,---,0.00,VWS V14.00,2013-01-05 12:34:00,
2013-01-05 04:39:00,32.4,23.3,30.00,SE,143,0.0,0.0,69,0.00,,---,0.00,VWS V14.00,2013-01-05 12:39:00,
2013-01-05 04:44:00,32.4,23.3,30.00,SE,143,0.0,0.0,69,0.00,,---,0.00,VWS V14.00,2013-01-05 12:44:00,
2013-01-05 04:50:00,32.2,23.2,30.00,SE,143,0.0,0.0,69,0.00,,---,0.00,VWS V14.00,2013-01-05 12:50:00,
2013-01-05 04:55:00,32.2,23.2,30.00,SE,143,0.0,0.0,69,0.00,,---,0.00,VWS V14.00,2013-01-05 12:55:00,
2013-01-05 05:01:00,32.2,23.2,30.00,SE,143,0.0,0.0,69,0.00,,---,0.00,VWS V14.00,2013-01-05 13:01:00,
2013-01-05 05:06:00,32.0,23.0,30.00,SE,143,0.0,0.0,69,0.00,,---,0.00,VWS V14.00,2013-01-05 13:06:00,
2013-01-05 05:11:00,32.0,23.0,30.00,SE,143,0.0,0.0,69,0.00,,---,0.00,VWS V14.00,2013-01-05 13:11:00,
2013-01-05 05:17:00,32.0,23.0,30.00,SE,143,0.0,0.0,69,0.00,,---,0.00,VWS V14.00,2013-01-05 13:17:00,
2013-01-05 05:23:00,31.8,22.8,30.00,SE,143,0.0,0.0,69,0.00,,---,0.00,VWS V14.00,2013-01-05 13:23:00,
2013-01-05 05:29:00,31.6,22.6,30.00,SE,143,0.0,0.0,69,0.00,,---,0.00,VWS V14.00,2013-01-05 13:29:00,
2013-01-05 05:34:00,31.6,22.6,30.00,SE,143,0.0,0.0,69,0.00,,---,0.00,VWS V14.00,2013-01-05 13:34:00,
2013-01-05 05:40:00,31.5,22.5,30.00,SE,143,0.0,0.0,69,0.00,,---,0.00,VWS V14.00,2013-01-05 13:40:00,
2013-01-05 05:45:00,31.5,22.8,30.00,SE,143,0.0,0.0,70,0.00,,---,0.00,VWS V14.00,2013-01-05 13:45:00,
2013-01-05 05:50:00,31.6,23.0,30.00,SE,143,0.0,0.0,70,0.00,,---,0.00,VWS V14.00,2013-01-05 13:50:00,
2013-01-05 05:56:00,31.8,23.2,30.00,SE,143,0.0,0.0,70,0.00,,---,0.00,VWS V14.00,2013-01-05 13:56:00,
2013-01-05 06:02:00,31.8,23.2,30.00,SE,143,0.0,0.0,70,0.00,,---,0.00,VWS V14.00,2013-01-05 14:02:00,
2013-01-05 06:07:00,32.0,23.3,30.00,SE,143,0.0,0.0,70,0.00,,---,0.00,VWS V14.00,2013-01-05 14:07:00,
2013-01-05 06:12:00,31.8,23.2,30.00,SE,143,0.0,0.0,70,0.00,,---,0.00,VWS V14.00,2013-01-05 14:12:00,
2013-01-05 06:17:00,31.6,23.0,30.00,SE,143,0.0,0.0,70,0.00,,---,0.00,VWS V14.00,2013-01-05 14:17:00,
2013-01-05 06:23:00,31.5,22.8,30.00,SE,143,0.0,0.0,70,0.00,,---,0.00,VWS V14.00,2013-01-05 14:23:00,
2013-01-05 06:29:00,31.5,22.8,30.00,SE,143,0.0,0.0,70,0.00,,---,0.00,VWS V14.00,2013-01-05 14:29:00,
2013-01-05 06:34:00,31.5,22.8,30.00,SE,143,0.0,0.0,70,0.00,,---,0.00,VWS V14.00,2013-01-05 14:34:00,
2013-01-05 06:40:00,31.3,22.6,30.00,SE,143,0.0,0.0,70,0.00,,---,0.00,VWS V14.00,2013-01-05 14:40:00,
2013-01-05 06:45:00,31.3,22.6,30.00,SE,143,0.0,0.0,70,0.00,,---,0.00,VWS V14.00,2013-01-05 14:45:00,
2013-01-05 06:50:00,31.1,22.8,30.00,SE,143,0.0,0.0,71,0.00,,---,0.00,VWS V14.00,2013-01-05 14:50:00,
2013-01-05 06:56:00,31.1,22.8,30.00,SE,143,0.0,0.0,71,0.00,,---,0.00,VWS V14.00,2013-01-05 14:56:00,
2013-01-05 07:01:00,31.1,22.8,30.00,SE,143,0.0,0.0,71,0.00,,---,0.00,VWS V14.00,2013-01-05 15:01:00,
2013-01-05 07:07:00,31.1,22.8,30.00,SE,143,0.0,0.0,71,0.00,,---,0.00,VWS V14.00,2013-01-05 15:07:00,
2013-01-05 07:12:00,31.1,22.8,30.00,SE,143,0.0,0.0,71,0.00,,---,0.00,VWS V14.00,2013-01-05 15:12:00,
2013-01-05 07:17:00,31.1,22.8,30.00,SE,143,0.0,0.0,71,0.00,,---,0.00,VWS V14.00,2013-01-05 15:17:00,
2013-01-05 07:23:00,31.3,23.0,30.03,SE,143,0.0,0.0,71,0.00,,---,0.00,VWS V14.00,2013-01-05 15:23:00,
2013-01-05 07:29:00,31.5,23.2,30.03,SE,143,0.0,0.0,71,0.00,,---,0.00,VWS V14.00,2013-01-05 15:29:00,
2013-01-05 07:34:00,31.5,23.2,30.03,SE,143,0.0,0.0,71,0.00,,---,0.00,VWS V14.00,2013-01-05 15:34:00,
2013-01-05 07:40:00,31.5,23.2,30.03,SE,143,0.0,0.0,71,0.00,,---,0.00,VWS V14.00,2013-01-05 15:40:00,
2013-01-05 07:45:00,31.6,23.7,30.03,SE,143,0.0,0.0,72,0.00,,---,0.00,VWS V14.00,2013-01-05 15:45:00,
2013-01-05 07:50:00,31.8,23.8,30.03,SE,143,0.0,0.0,72,0.00,,---,0.00,VWS V14.00,2013-01-05 15:50:00,
2013-01-05 07:56:00,32.0,24.0,30.03,SE,143,0.0,0.0,72,0.00,,---,0.00,VWS V14.00,2013-01-05 15:56:00,
2013-01-05 08:01:00,32.4,24.4,30.03,SE,143,0.0,0.0,72,0.00,,---,0.00,VWS V14.00,2013-01-05 16:01:00,
2013-01-05 08:06:00,32.7,24.7,30.03,SE,143,0.0,0.0,72,0.00,,---,0.00,VWS V14.00,2013-01-05 16:06:00,
2013-01-05 08:11:00,33.1,25.0,30.03,SE,143,0.0,0.0,72,0.00,,---,0.00,VWS V14.00,2013-01-05 16:11:00,
2013-01-05 08:17:00,33.6,25.6,30.03,SE,143,0.0,0.0,72,0.00,,---,0.00,VWS V14.00,2013-01-05 16:17:00,
2013-01-05 08:22:00,34.0,25.9,30.03,SE,143,0.0,0.0,72,0.00,,---,0.00,VWS V14.00,2013-01-05 16:22:00,
2013-01-05 08:27:00,34.3,26.3,30.03,SE,143,0.0,0.0,72,0.00,,---,0.00,VWS V14.00,2013-01-05 16:27:00,
2013-01-05 08:32:00,34.7,26.6,30.03,SE,143,0.0,0.0,72,0.00,,---,0.00,VWS V14.00,2013-01-05 16:32:00,
2013-01-05 08:37:00,34.9,27.1,30.03,SE,143,0.0,0.0,73,0.00,,---,0.00,VWS V14.00,2013-01-05 16:37:00,
2013-01-05 08:42:00,35.4,27.6,30.03,SE,143,0.0,0.0,73,0.00,,---,0.00,VWS V14.00,2013-01-05 16:42:00,
2013-01-05 08:47:00,35.4,27.6,30.03,SE,143,0.0,0.0,73,0.00,,---,0.00,VWS V14.00,2013-01-05 16:47:00,
2013-01-05 08:53:00,36.3,28.5,30.03,SE,143,0.0,0.0,73,0.00,,---,0.00,VWS V14.00,2013-01-05 16:53:00,
2013-01-05 08:58:00,36.9,29.0,30.03,SE,143,0.0,0.0,73,0.00,,---,0.00,VWS V14.00,2013-01-05 16:58:00,
2013-01-05 09:03:00,37.0,29.2,30.03,East,101,0.0,0.0,73,0.00,,---,0.00,VWS V14.00,2013-01-05 17:03:00,
2013-01-05 09:09:00,37.9,30.1,30.03,East,101,0.0,0.0,73,0.00,,---,0.00,VWS V14.00,2013-01-05 17:09:00,
2013-01-05 09:15:00,38.5,30.6,30.03,East,92,0.0,2.7,73,0.00,,---,0.00,VWS V14.00,2013-01-05 17:15:00,
2013-01-05 09:21:00,39.0,31.5,30.06,East,101,0.0,0.0,74,0.00,,---,0.00,VWS V14.00,2013-01-05 17:21:00,
2013-01-05 09:26:00,39.4,31.5,30.06,East,101,0.0,0.0,73,0.00,,---,0.00,VWS V14.00,2013-01-05 17:26:00,
2013-01-05 09:32:00,39.7,32.1,30.03,ESE,108,0.0,0.0,74,0.00,,---,0.00,VWS V14.00,2013-01-05 17:32:00,
2013-01-05 09:37:00,40.1,32.5,30.03,East,99,0.0,0.0,74,0.00,,---,0.00,VWS V14.00,2013-01-05 17:37:00,
2013-01-05 09:42:00,40.6,33.0,30.03,East,99,0.0,0.0,74,0.00,,---,0.00,VWS V14.00,2013-01-05 17:42:00,
2013-01-05 09:48:00,41.4,33.7,30.06,ENE,71,0.0,2.7,74,0.00,,---,0.00,VWS V14.00,2013-01-05 17:48:00,
2013-01-05 09:53:00,41.7,34.1,30.06,ENE,72,0.0,0.0,74,0.00,,---,0.00,VWS V14.00,2013-01-05 17:53:00,
2013-01-05 09:59:00,42.3,34.6,30.06,ENE,71,0.0,0.0,74,0.00,,---,0.00,VWS V14.00,2013-01-05 17:59:00,
2013-01-05 10:04:00,42.4,34.8,30.06,East,94,0.0,0.0,74,0.00,,---,0.00,VWS V14.00,2013-01-05 18:04:00,
2013-01-05 10:09:00,43.0,35.3,30.06,East,94,0.0,0.0,74,0.00,,---,0.00,VWS V14.00,2013-01-05 18:09:00,
2013-01-05 10:15:00,43.7,36.0,30.06,East,94,0.0,0.0,74,0.00,,---,0.00,VWS V14.00,2013-01-05 18:15:00,
2013-01-05 10:21:00,44.2,36.5,30.03,East,93,0.0,0.0,74,0.00,,---,0.00,VWS V14.00,2013-01-05 18:21:00,
2013-01-05 10:26:00,44.4,37.0,30.03,East,93,0.0,0.0,75,0.00,,---,0.00,VWS V14.00,2013-01-05 18:26:00,
2013-01-05 10:32:00,45.3,37.5,30.03,ESE,115,0.0,0.0,74,0.00,,---,0.00,VWS V14.00,2013-01-05 18:32:00,
2013-01-05 10:38:00,45.5,37.7,30.03,ESE,123,0.0,0.0,74,0.00,,---,0.00,VWS V14.00,2013-01-05 18:38:00,
2013-01-05 10:43:00,46.0,38.6,30.03,SE,124,0.0,0.0,75,0.00,,---,0.00,VWS V14.00,2013-01-05 18:43:00,
2013-01-05 10:48:00,46.4,38.6,30.03,SE,130,3.6,4.0,74,0.00,,---,0.00,VWS V14.00,2013-01-05 18:48:00,
2013-01-05 10:54:00,46.6,38.8,30.03,SE,130,3.1,3.1,74,0.00,,---,0.00,VWS V14.00,2013-01-05 18:54:00,
2013-01-05 10:59:00,46.8,38.9,30.03,ESE,123,2.7,2.7,74,0.00,,---,0.00,VWS V14.00,2013-01-05 18:59:00,
2013-01-05 11:04:00,46.9,39.1,30.00,East,92,2.7,3.1,74,0.00,,---,0.00,VWS V14.00,2013-01-05 19:04:00,
2013-01-05 11:09:00,47.3,39.5,30.00,SE,124,0.0,0.0,74,0.00,,---,0.00,VWS V14.00,2013-01-05 19:09:00,
2013-01-05 11:15:00,47.8,40.0,30.00,ESE,104,0.0,0.0,74,0.00,,---,0.00,VWS V14.00,2013-01-05 19:15:00,
2013-01-05 11:20:00,48.6,40.3,30.00,ENE,64,3.1,3.1,73,0.00,,---,0.00,VWS V14.00,2013-01-05 19:20:00,
2013-01-05 11:26:00,48.7,40.5,30.00,ENE,64,2.7,3.1,73,0.00,,---,0.00,VWS V14.00,2013-01-05 19:26:00,
2013-01-05 11:32:00,49.3,41.0,30.00,East,85,3.1,3.1,73,0.00,,---,0.00,VWS V14.00,2013-01-05 19:32:00,
2013-01-05 11:38:00,49.8,41.2,30.00,East,101,4.0,4.0,72,0.00,,---,0.00,VWS V14.00,2013-01-05 19:38:00,
2013-01-05 11:44:00,50.0,40.2,30.00,East,89,3.6,4.0,69,0.00,,---,0.00,VWS V14.00,2013-01-05 19:44:00,
2013-01-05 11:49:00,50.4,40.6,29.97,ENE,67,2.2,3.6,69,0.00,,---,0.00,VWS V14.00,2013-01-05 19:49:00,
2013-01-05 11:54:00,50.7,40.6,29.97,ESE,113,4.0,4.0,68,0.00,,---,0.00,VWS V14.00,2013-01-05 19:54:00,
2013-01-05 12:00:00,51.1,40.5,29.97,ENE,69,2.7,2.7,67,0.00,,---,0.00,VWS V14.00,2013-01-05 20:00:00,
2013-01-05 12:05:00,51.3,39.1,29.97,East,83,2.7,4.0,63,0.00,,---,0.00,VWS V14.00,2013-01-05 20:05:00,
2013-01-05 12:10:00,51.4,38.5,29.97,East,81,0.0,0.0,61,0.00,,---,0.00,VWS V14.00,2013-01-05 20:10:00,
2013-01-05 12:15:00,51.4,38.0,29.97,East,79,4.0,4.0,60,0.00,,---,0.00,VWS V14.00,2013-01-05 20:15:00,
2013-01-05 12:20:00,51.6,37.8,29.97,NNE,30,0.0,0.0,59,0.00,,---,0.00,VWS V14.00,2013-01-05 20:20:00,
2013-01-05 12:25:00,51.8,37.1,29.97,East,99,2.7,2.7,57,0.00,,---,0.00,VWS V14.00,2013-01-05 20:25:00,
2013-01-05 12:30:00,51.8,36.6,29.97,NE,45,0.0,0.0,56,0.00,,---,0.00,VWS V14.00,2013-01-05 20:30:00,
2013-01-05 12:36:00,52.0,36.3,29.97,South,170,0.0,0.0,55,0.00,,---,0.00,VWS V14.00,2013-01-05 20:36:00,
2013-01-05 12:41:00,52.2,36.5,29.97,SSE,160,4.0,4.0,55,0.00,,---,0.00,VWS V14.00,2013-01-05 20:41:00,
2013-01-05 12:46:00,52.2,36.0,29.97,SE,139,6.3,6.3,54,0.00,,---,0.00,VWS V14.00,2013-01-05 20:46:00,
2013-01-05 12:51:00,52.0,34.4,29.94,South,189,2.7,2.7,51,0.00,,---,0.00,VWS V14.00,2013-01-05 20:51:00,
2013-01-05 12:57:00,52.0,33.9,29.94,ESE,117,2.7,2.7,50,0.00,,---,0.00,VWS V14.00,2013-01-05 20:57:00,
2013-01-05 13:02:00,52.0,34.4,29.94,WSW,238,0.0,0.0,51,0.00,,---,0.00,VWS V14.00,2013-01-05 21:02:00,
2013-01-05 13:08:00,52.2,34.6,29.94,SSW,204,3.6,3.6,51,0.00,,---,0.00,VWS V14.00,2013-01-05 21:08:00,
2013-01-05 13:13:00,52.2,34.6,29.94,SW,228,0.0,3.6,51,0.00,,---,0.00,VWS V14.00,2013-01-05 21:13:00,
2013-01-05 13:19:00,52.0,33.4,29.94,South,184,2.7,3.6,49,0.00,,---,0.00,VWS V14.00,2013-01-05 21:19:00,
2013-01-05 13:24:00,51.8,32.8,29.94,WSW,238,4.0,4.0,48,0.00,,---,0.00,VWS V14.00,2013-01-05 21:24:00,
2013-01-05 13:30:00,51.8,32.8,29.94,SW,228,4.0,4.0,48,0.00,,---,0.00,VWS V14.00,2013-01-05 21:30:00,
2013-01-05 13:35:00,51.6,32.1,29.91,SSW,210,3.6,4.0,47,0.00,,---,0.00,VWS V14.00,2013-01-05 21:35:00,
2013-01-05 13:40:00,51.4,31.9,29.91,SW,225,4.0,4.0,47,0.00,,---,0.00,VWS V14.00,2013-01-05 21:40:00,
2013-01-05 13:46:00,51.4,31.9,29.91,SSE,153,2.7,3.6,47,0.00,,---,0.00,VWS V14.00,2013-01-05 21:46:00,
2013-01-05 13:51:00,51.3,31.7,29.94,SE,143,0.0,0.0,47,0.00,,---,0.00,VWS V14.00,2013-01-05 21:51:00,
2013-01-05 13:56:00,51.3,31.7,29.94,SSW,213,3.1,3.1,47,0.00,,---,0.00,VWS V14.00,2013-01-05 21:56:00,
2013-01-05 14:01:00,51.1,31.6,29.94,SSW,203,3.1,3.1,47,0.00,,---,0.00,VWS V14.00,2013-01-05 22:01:00,
2013-01-05 14:07:00,50.9,29.8,29.94,WSW,256,4.9,5.8,44,0.00,,---,0.00,VWS V14.00,2013-01-05 22:07:00,
2013-01-05 14:12:00,50.9,30.9,29.94,West,274,4.9,4.9,46,0.00,,---,0.00,VWS V14.00,2013-01-05 22:12:00,
2013-01-05 14:18:00,50.2,29.7,29.94,West,266,4.0,4.0,45,0.00,,---,0.00,VWS V14.00,2013-01-05 22:18:00,
2013-01-05 14:23:00,49.6,29.7,29.94,NW,307,2.7,2.7,46,0.00,,---,0.00,VWS V14.00,2013-01-05 22:23:00,
2013-01-05 14:28:00,49.3,29.4,29.94,WNW,297,3.6,3.6,46,0.00,,---,0.00,VWS V14.00,2013-01-05 22:28:00,
2013-01-05 14:33:00,48.9,29.1,29.91,NNW,327,2.7,3.6,46,0.00,,---,0.00,VWS V14.00,2013-01-05 22:33:00,
2013-01-05 14:38:00,48.7,29.4,29.91,WNW,299,0.0,2.7,47,0.00,,---,0.00,VWS V14.00,2013-01-05 22:38:00,
2013-01-05 14:43:00,48.7,29.4,29.91,WSW,256,0.0,0.0,47,0.00,,---,0.00,VWS V14.00,2013-01-05 22:43:00,
2013-01-05 14:49:00,48.7,29.4,29.91,NW,304,2.7,3.6,47,0.00,,---,0.00,VWS V14.00,2013-01-05 22:49:00,
2013-01-05 14:54:00,48.7,29.4,29.91,NNW,346,0.0,3.1,47,0.00,,---,0.00,VWS V14.00,2013-01-05 22:54:00,
2013-01-05 14:59:00,48.7,29.4,29.91,NNW,346,0.0,0.0,47,0.00,,---,0.00,VWS V14.00,2013-01-05 22:59:00,
2013-01-05 15:04:00,48.7,29.4,29.91,NE,54,0.0,0.0,47,0.00,,---,0.00,VWS V14.00,2013-01-05 23:04:00,
2013-01-05 15:10:00,48.6,29.8,29.91,NE,53,0.0,0.0,48,0.00,,---,0.00,VWS V14.00,2013-01-05 23:10:00,
2013-01-05 15:15:00,48.6,29.8,29.91,NNE,17,0.0,0.0,48,0.00,,---,0.00,VWS V14.00,2013-01-05 23:15:00,
2013-01-05 15:21:00,48.6,29.8,29.91,WNW,299,3.1,3.1,48,0.00,,---,0.00,VWS V14.00,2013-01-05 23:21:00,
2013-01-05 15:26:00,48.7,29.9,29.91,West,281,2.7,2.7,48,0.00,,---,0.00,VWS V14.00,2013-01-05 23:26:00,
2013-01-05 15:31:00,48.7,29.9,29.91,WNW,291,2.7,2.7,48,0.00,,---,0.00,VWS V14.00,2013-01-05 23:31:00,
2013-01-05 15:37:00,48.6,29.8,29.91,WNW,294,0.0,3.6,48,0.00,,---,0.00,VWS V14.00,2013-01-05 23:37:00,
2013-01-05 15:42:00,48.6,29.8,29.91,West,272,2.7,3.6,48,0.00,,---,0.00,VWS V14.00,2013-01-05 23:42:00,
2013-01-05 15:47:00,48.6,29.8,29.91,NW,318,4.9,4.9,48,0.00,,---,0.00,VWS V14.00,2013-01-05 23:47:00,
2013-01-05 15:52:00,48.4,29.6,29.91,NW,324,3.6,3.6,48,0.00,,---,0.00,VWS V14.00,2013-01-05 23:52:00,
2013-01-05 15:58:00,48.0,29.8,29.91,NNW,342,2.7,3.6,49,0.00,,---,0.00,VWS V14.00,2013-01-05 23:58:00,
2013-01-05 16:03:00,48.0,29.8,29.91,NW,313,2.7,2.7,49,0.00,,---,0.00,VWS V14.00,2013-01-06 00:03:00,
2013-01-05 16:08:00,47.7,29.5,29.91,North,1,0.0,0.0,49,0.00,,---,0.00,VWS V14.00,2013-01-06 00:08:00,
2013-01-05 16:13:00,47.5,29.3,29.91,WNW,298,5.4,5.4,49,0.00,,---,0.00,VWS V14.00,2013-01-06 00:13:00,
2013-01-05 16:19:00,47.5,29.3,29.91,NW,310,3.1,3.1,49,0.00,,---,0.00,VWS V14.00,2013-01-06 00:19:00,
2013-01-05 16:24:00,47.3,29.6,29.91,NW,310,3.6,4.0,50,0.00,,---,0.00,VWS V14.00,2013-01-06 00:24:00,
2013-01-05 16:29:00,47.1,29.5,29.91,NW,312,3.1,3.1,50,0.00,,---,0.00,VWS V14.00,2013-01-06 00:29:00,
2013-01-05 16:34:00,47.1,29.5,29.91,NW,325,5.4,5.4,50,0.00,,---,0.00,VWS V14.00,2013-01-06 00:34:00,
2013-01-05 16:39:00,46.9,29.3,29.91,NW,320,4.5,4.9,50,0.00,,---,0.00,VWS V14.00,2013-01-06 00:39:00,
2013-01-05 16:45:00,46.9,29.3,29.91,North,353,4.0,4.0,50,0.00,,---,0.00,VWS V14.00,2013-01-06 00:45:00,
2013-01-05 16:50:00,46.6,29.4,29.91,NNW,330,3.6,5.4,51,0.00,,---,0.00,VWS V14.00,2013-01-06 00:50:00,
2013-01-05 16:55:00,46.4,29.3,29.91,NNW,345,5.4,5.4,51,0.00,,---,0.00,VWS V14.00,2013-01-06 00:55:00,
2013-01-05 17:01:00,46.2,30.0,29.91,North,0,5.4,5.4,53,0.00,,---,0.00,VWS V14.00,2013-01-06 01:01:00,
2013-01-05 17:07:00,46.2,30.0,29.91,North,353,2.7,2.7,53,0.00,,---,0.00,VWS V14.00,2013-01-06 01:07:00,
2013-01-05 17:12:00,46.0,29.9,29.91,NNE,19,0.0,2.7,53,0.00,,---,0.00,VWS V14.00,2013-01-06 01:12:00,
2013-01-05 17:17:00,46.0,30.3,29.91,NNE,25,0.0,0.0,54,0.00,,---,0.00,VWS V14.00,2013-01-06 01:17:00,
2013-01-05 17:22:00,45.9,30.2,29.88,NE,39,0.0,0.0,54,0.00,,---,0.00,VWS V14.00,2013-01-06 01:22:00,
2013-01-05 17:27:00,45.9,30.2,29.88,North,4,0.0,0.0,54,0.00,,---,0.00,VWS V14.00,2013-01-06 01:27:00,
2013-01-05 17:32:00,45.9,30.2,29.88,North,353,0.0,0.0,54,0.00,,---,0.00,VWS V14.00,2013-01-06 01:32:00,
2013-01-05 17:37:00,45.9,30.6,29.88,North,1,0.0,0.0,55,0.00,,---,0.00,VWS V14.00,2013-01-06 01:37:00,
2013-01-05 17:43:00,45.9,30.6,29.88,North,357,0.0,2.7,55,0.00,,---,0.00,VWS V14.00,2013-01-06 01:43:00,
2013-01-05 17:49:00,45.9,30.6,29.88,North,353,3.1,3.1,55,0.00,,---,0.00,VWS V14.00,2013-01-06 01:49:00,
2013-01-05 17:54:00,45.9,30.6,29.88,North,353,0.0,0.0,55,0.00,,---,0.00,VWS V14.00,2013-01-06 01:54:00,
2013-01-05 18:00:00,45.5,30.3,29.88,North,353,0.0,0.0,55,0.00,,---,0.00,VWS V14.00,2013-01-06 02:00:00,
2013-01-05 18:06:00,45.5,30.3,29.91,NNW,330,0.0,0.0,55,0.00,,---,0.00,VWS V14.00,2013-01-06 02:06:00,
2013-01-05 18:11:00,45.5,30.3,29.91,NNW,330,0.0,0.0,55,0.00,,---,0.00,VWS V14.00,2013-01-06 02:11:00,
2013-01-05 18:16:00,45.3,30.1,29.91,NNW,329,0.0,0.0,55,0.00,,---,0.00,VWS V14.00,2013-01-06 02:16:00,
2013-01-05 18:21:00,45.3,30.1,29.88,NW,308,0.0,0.0,55,0.00,,---,0.00,VWS V14.00,2013-01-06 02:21:00,
2013-01-05 18:27:00,45.3,30.1,29.88,NW,305,0.0,0.0,55,0.00,,---,0.00,VWS V14.00,2013-01-06 02:27:00,
2013-01-05 18:32:00,45.3,30.6,29.88,NW,319,0.0,0.0,56,0.00,,---,0.00,VWS V14.00,2013-01-06 02:32:00,
2013-01-05 18:37:00,45.3,30.6,29.88,NNW,332,0.0,0.0,56,0.00,,---,0.00,VWS V14.00,2013-01-06 02:37:00,
2013-01-05 18:43:00,45.3,30.6,29.88,North,357,2.2,3.1,56,0.00,,---,0.00,VWS V14.00,2013-01-06 02:43:00,
2013-01-05 18:49:00,45.1,30.4,29.88,North,357,0.0,0.0,56,0.00,,---,0.00,VWS V14.00,2013-01-06 02:49:00,
2013-01-05 18:54:00,45.1,30.4,29.88,North,0,0.0,2.2,56,0.00,,---,0.00,VWS V14.00,2013-01-06 02:54:00,
2013-01-05 18:59:00,45.3,31.0,29.88,North,1,4.0,4.0,57,0.00,,---,0.00,VWS V14.00,2013-01-06 02:59:00,
2013-01-05 19:04:00,45.3,31.0,29.88,North,2,0.0,0.0,57,0.00,,---,0.00,VWS V14.00,2013-01-06 03:04:00,
2013-01-05 19:10:00,45.3,31.0,29.88,WNW,298,3.6,3.6,57,0.00,,---,0.00,VWS V14.00,2013-01-06 03:10:00,
2013-01-05 19:16:00,45.3,31.0,29.85,WNW,303,0.0,0.0,57,0.00,,---,0.00,VWS V14.00,2013-01-06 03:16:00,
2013-01-05 19:21:00,45.5,31.2,29.85,WNW,303,0.0,0.0,57,0.00,,---,0.00,VWS V14.00,2013-01-06 03:21:00,
2013-01-05 19:27:00,45.5,31.2,29.85,NW,315,0.0,0.0,57,0.00,,---,0.00,VWS V14.00,2013-01-06 03:27:00,
2013-01-05 19:32:00,45.5,31.2,29.85,NNW,340,0.0,0.0,57,0.00,,---,0.00,VWS V14.00,2013-01-06 03:32:00,
2013-01-05 19:37:00,45.5,31.2,29.85,WNW,303,0.0,0.0,57,0.00,,---,0.00,VWS V14.00,2013-01-06 03:37:00,
2013-01-05 19:42:00,45.5,31.2,29.85,WNW,303,0.0,0.0,57,0.00,,---,0.00,VWS V14.00,2013-01-06 03:42:00,
2013-01-05 19:47:00,45.3,31.4,29.88,WNW,303,0.0,0.0,58,0.00,,---,0.00,VWS V14.00,2013-01-06 03:47:00,
2013-01-05 19:52:00,45.3,31.4,29.88,WNW,303,0.0,0.0,58,0.00,,---,0.00,VWS V14.00,2013-01-06 03:52:00,
2013-01-05 19:58:00,45.1,31.3,29.88,WNW,303,0.0,0.0,58,0.00,,---,0.00,VWS V14.00,2013-01-06 03:58:00,
2013-01-05 20:03:00,45.0,31.1,29.88,WNW,303,0.0,0.0,58,0.00,,---,0.00,VWS V14.00,2013-01-06 04:03:00,
2013-01-05 20:08:00,45.0,31.1,29.88,WNW,303,0.0,0.0,58,0.00,,---,0.00,VWS V14.00,2013-01-06 04:08:00,
2013-01-05 20:13:00,45.0,31.1,29.88,NNW,333,0.0,0.0,58,0.00,,---,0.00,VWS V14.00,2013-01-06 04:13:00,
2013-01-05 20:19:00,44.8,31.3,29.88,WNW,301,2.7,2.7,59,0.00,,---,0.00,VWS V14.00,2013-01-06 04:19:00,
2013-01-05 20:24:00,44.6,31.2,29.88,NW,305,4.0,4.0,59,0.00,,---,0.00,VWS V14.00,2013-01-06 04:24:00,
2013-01-05 20:29:00,44.6,31.2,29.88,NW,312,0.0,0.0,59,0.04,,---,0.04,VWS V14.00,2013-01-06 04:29:00,
2013-01-05 20:34:00,44.4,31.4,29.88,NW,312,0.0,0.0,60,0.04,,---,0.04,VWS V14.00,2013-01-06 04:34:00,
2013-01-05 20:40:00,44.4,31.4,29.88,NW,312,0.0,0.0,60,0.04,,---,0.04,VWS V14.00,2013-01-06 04:40:00,
2013-01-05 20:45:00,44.2,31.7,29.88,NW,312,0.0,0.0,61,0.04,,---,0.04,VWS V14.00,2013-01-06 04:45:00,
2013-01-05 20:50:00,44.2,31.7,29.88,NW,312,2.7,2.7,61,0.04,,---,0.04,VWS V14.00,2013-01-06 04:50:00,
2013-01-05 20:56:00,44.2,31.7,29.88,NNW,335,0.0,0.0,61,0.04,,---,0.04,VWS V14.00,2013-01-06 04:56:00,
2013-01-05 21:01:00,44.2,32.1,29.88,WNW,287,0.0,0.0,62,0.08,,---,0.08,VWS V14.00,2013-01-06 05:01:00,
2013-01-05 21:02:00,44.2,32.1,29.88,WNW,287,0.0,0.0,62,0.08,,---,0.08,VWS V14.00,2013-01-06 05:02:00,
2013-01-05 21:03:00,44.2,32.1,29.88,WNW,295,4.0,4.0,62,0.08,,---,0.08,VWS V14.00,2013-01-06 05:03:00,
2013-01-05 21:04:00,44.2,32.1,29.88,WNW,295,4.0,4.0,62,0.08,,---,0.08,VWS V14.00,2013-01-06 05:04:00,
2013-01-05 21:05:00,44.2,32.1,29.88,NW,312,0.0,0.0,62,0.08,,---,0.08,VWS V14.00,2013-01-06 05:05:00,
2013-01-05 21:11:00,44.2,32.5,29.88,North,2,0.0,0.0,63,0.08,,---,0.08,VWS V14.00,2013-01-06 05:11:00,
2013-01-05 21:16:00,44.1,32.3,29.88,North,357,3.1,3.1,63,0.16,,---,0.16,VWS V14.00,2013-01-06 05:16:00,
2013-01-05 21:22:00,44.1,32.3,29.88,NW,319,0.0,0.0,63,0.16,,---,0.16,VWS V14.00,2013-01-06 05:22:00,
2013-01-05 21:27:00,44.1,32.7,29.88,NNW,327,4.0,4.5,64,0.16,,---,0.20,VWS V14.00,2013-01-06 05:27:00,
2013-01-05 21:32:00,44.1,33.1,29.88,NNW,335,4.9,4.9,65,0.16,,---,0.20,VWS V14.00,2013-01-06 05:32:00,
2013-01-05 21:38:00,44.1,33.1,29.88,NW,318,5.8,5.8,65,0.16,,---,0.20,VWS V14.00,2013-01-06 05:38:00,
2013-01-05 21:44:00,43.9,33.3,29.88,NNW,327,2.7,3.1,66,0.20,,---,0.24,VWS V14.00,2013-01-06 05:44:00,
2013-01-05 21:50:00,43.9,33.3,29.88,NNW,341,2.7,2.7,66,0.20,,---,0.24,VWS V14.00,2013-01-06 05:50:00,
2013-01-05 21:55:00,43.7,33.5,29.88,NNW,337,0.0,3.6,67,0.20,,---,0.24,VWS V14.00,2013-01-06 05:55:00,
2013-01-05 22:01:00,43.7,33.5,29.88,NW,306,3.6,3.6,67,0.20,,---,0.24,VWS V14.00,2013-01-06 06:01:00,
2013-01-05 22:07:00,43.7,33.8,29.88,NNW,334,0.0,2.7,68,0.16,,---,0.24,VWS V14.00,2013-01-06 06:07:00,
2013-01-05 22:12:00,43.7,33.8,29.88,WNW,297,4.0,4.0,68,0.16,,---,0.24,VWS V14.00,2013-01-06 06:12:00,
2013-01-05 22:17:00,43.7,33.8,29.88,NNW,331,4.0,4.0,68,0.12,,---,0.28,VWS V14.00,2013-01-06 06:17:00,
2013-01-05 22:23:00,43.7,34.2,29.88,NW,317,2.7,4.0,69,0.12,,---,0.28,VWS V14.00,2013-01-06 06:23:00,
2013-01-05 22:29:00,43.5,34.4,29.88,NW,321,3.6,3.6,70,0.12,,---,0.31,VWS V14.00,2013-01-06 06:29:00,
2013-01-05 22:34:00,43.5,34.4,29.88,NW,313,5.8,5.8,70,0.12,,---,0.31,VWS V14.00,2013-01-06 06:34:00,
2013-01-05 22:40:00,43.3,34.6,29.88,NNW,341,5.8,5.8,71,0.12,,---,0.31,VWS V14.00,2013-01-06 06:40:00,
2013-01-05 22:46:00,43.3,34.6,29.88,NNW,346,3.1,3.1,71,0.12,,---,0.35,VWS V14.00,2013-01-06 06:46:00,
2013-01-05 22:51:00,43.2,34.4,29.88,NW,323,3.1,3.1,71,0.12,,---,0.35,VWS V14.00,2013-01-06 06:51:00,
2013-01-05 22:56:00,43.2,34.8,29.88,NNW,339,5.4,5.4,72,0.16,,---,0.39,VWS V14.00,2013-01-06 06:56:00,
2013-01-05 23:01:00,43.2,34.8,29.85,North,0,3.6,5.4,72,0.16,,---,0.39,VWS V14.00,2013-01-06 07:01:00,
2013-01-05 23:06:00,43.2,35.1,29.85,NNW,345,5.8,6.3,73,0.16,,---,0.39,VWS V14.00,2013-01-06 07:06:00,
2013-01-05 23:11:00,43.2,35.1,29.85,North,0,5.4,5.8,73,0.16,,---,0.39,VWS V14.00,2013-01-06 07:11:00,
2013-01-05 23:17:00,43.2,35.1,29.85,NW,322,3.6,3.6,73,0.12,,---,0.39,VWS V14.00,2013-01-06 07:17:00,
2013-01-05 23:22:00,43.2,35.1,29.88,WNW,293,0.0,2.2,73,0.12,,---,0.39,VWS V14.00,2013-01-06 07:22:00,
2013-01-05 23:27:00,43.2,35.1,29.88,NNW,346,3.1,3.6,73,0.08,,---,0.39,VWS V14.00,2013-01-06 07:27:00,
2013-01-05 23:32:00,43.2,35.1,29.88,North,1,3.6,3.6,73,0.12,,---,0.43,VWS V14.00,2013-01-06 07:32:00,
2013-01-05 23:37:00,43.2,35.1,29.88,NNW,341,3.6,3.6,73,0.12,,---,0.43,VWS V14.00,2013-01-06 07:37:00,
2013-01-05 23:43:00,43.2,35.1,29.88,North,4,3.6,3.6,73,0.12,,---,0.43,VWS V14.00,2013-01-06 07:43:00,
2013-01-05 23:48:00,43.2,35.5,29.88,North,357,0.0,0.0,74,0.08,,---,0.43,VWS V14.00,2013-01-06 07:48:00,
2013-01-05 23:53:00,43.2,35.5,29.88,North,357,3.6,3.6,74,0.12,,---,0.47,VWS V14.00,2013-01-06 07:53:00,
2013-01-05 23:58:00,43.2,35.5,29.88,North,353,4.0,4.9,74,0.08,,---,0.47,VWS V14.00,2013-01-06 07:58:00,